GFSNW_850_dewp_219.txt.gz
Dewpoint
1 1 0 -2 -3 -4 3 6 5 5 6 5 4 5 3 1 0 2 2 1 2 2 2 2 2 2 1 -2 -1 1 -1 0 4 2 -2 -3 -2 0 2 8 7 5 3 0
1 2 1 -1 -2 -3 2 5 3 5 6 4 4 4 3 1 1 2 3 2 3 2 3 4 2 1 -2 -2 -0 1 -0 3 4 4 1 -1 1 -0 -0 2 5 5 7 1
1 2 1 1 -1 -4 2 2 2 2 4 4 4 5 4 4 2 1 4 3 6 4 4 2 3 2 -2 -2 -1 -1 -0 2 4 6 2 -0 2 0 -0 1 8 5 3 -1
1 1 1 0 -1 -3 3 2 1 3 3 4 5 4 3 5 6 2 1 5 6 6 7 5 5 2 0 -1 -1 -1 1 5 3 3 1 -1 -2 0 -1 1 3 5 0 -2
1 1 1 1 -1 -1 3 -0 1 2 3 3 5 4 5 5 5 4 5 5 5 5 7 5 6 4 2 1 -1 0 2 7 3 4 -2 -3 -3 -4 -2 -2 -2 -2 -3 -3
1 1 1 1 -2 1 3 2 2 3 4 4 5 5 5 5 3 2 1 3 5 6 4 3 4 3 2 3 2 3 4 5 4 5 0 -1 2 -1 -2 -3 -4 -3 -2 -5
2 1 1 0 -0 1 3 2 3 3 4 4 5 4 3 4 4 5 2 2 4 3 2 2 1 2 3 3 2 1 3 3 4 6 -1 4 -2 -9 -7 -3 -5 -6 -7 -12
1 1 0 -1 -2 2 2 3 3 3 4 4 4 4 4 4 3 3 3 3 2 2 1 2 3 2 3 2 1 2 1 3 4 4 2 -2 -8 -11 -11 -10 -9 -11 -14 -17
2 -1 -2 -2 -0 2 2 3 3 2 3 3 2 4 4 2 2 1 -0 1 1 2 1 3 4 3 2 1 -1 -2 0 -0 1 3 5 3 -8 -10 -16 -16 -10 -16 -17 -14
-2 -1 1 1 3 3 2 3 3 3 1 2 3 2 3 2 1 1 0 0 0 0 3 4 4 3 -2 1 -0 -0 0 3 4 1 1 -4 -13 -14 -15 -13 -9 -11 -12 -13
-2 -2 0 0 2 4 3 3 3 2 -1 -1 1 1 0 0 1 1 -0 0 0 1 3 3 2 -1 -2 -3 -4 -3 0 0 1 0 1 0 -14 -12 -12 -10 -9 -11 -12 -13
-2 -1 -1 0 2 3 3 3 3 2 0 -2 -1 -1 0 1 1 -0 -0 0 -0 0 2 1 -2 -3 -5 -6 -4 -7 -2 -3 -3 -4 -4 -10 -12 -11 -12 -12 -13 -13 -11 -9
-1 -0 1 2 2 3 3 3 1 2 -2 -2 -2 -2 -0 0 1 -0 0 0 -1 -1 -2 -1 -3 -2 -6 -3 -5 -7 -8 -10 -6 -8 -10 -11 -12 -13 -12 -14 -12 -11 -7 -6
1 1 2 2 2 3 3 3 1 -1 -1 -1 -2 -2 -1 -0 -0 0 -0 -2 -4 -3 -2 -1 -3 -4 -8 -7 -9 -8 -9 -10 -9 -10 -14 -14 -13 -12 -15 -13 -8 -5 -7 -10
-1 1 2 2 1 2 2 1 -1 -2 -2 -1 -2 -2 -1 -1 -2 -0 -1 -3 -5 -2 -0 -1 -3 -8 -8 -10 -11 -10 -12 -9 -7 -8 -12 -13 -14 -14 -12 -7 -6 -8 -11 -12
-1 -1 -0 0 0 0 -2 -2 -3 -3 -5 -4 -2 -2 -1 -2 -3 -3 -4 -4 -3 -1 -1 -2 -7 -7 -7 -5 -12 -16 -16 -14 -15 -14 -14 -13 -13 -11 -8 -6 -8 -11 -11 -11
-3 -3 -2 -4 -4 -3 -3 -3 -4 -5 -6 -4 -2 -3 -4 -4 -5 -5 -5 -5 -6 -4 -4 -6 -11 -10 -6 -8 -10 -16 -15 -15 -15 -15 -14 -13 -12 -9 -7 -7 -10 -10 -10 -10
-13 -12 -12 -12 -11 -9 -9 -10 -9 -9 -8 -6 -3 -4 -6 -5 -6 -4 -6 -5 -5 -5 -7 -8 -9 -7 -9 -7 -13 -15 -16 -14 -15 -14 -14 -9 -10 -8 -7 -9 -11 -10 -10 -10
-15 -14 -12 -8 -8 -10 -10 -17 -11 -8 -8 -3 -5 -4 -5 -5 -8 -6 -6 -8 -5 -8 -6 -9 -10 -8 -6 -10 -13 -16 -16 -15 -15 -15 -14 -12 -8 -6 -9 -11 -10 -9 -9 -11
-16 -12 -16 -7 -8 -14 -8 -8 -5 -3 -7 -7 -6 -8 -4 -6 -7 -6 -6 -7 -5 -4 -7 -8 -6 -7 -11 -11 -12 -13 -14 -15 -13 -11 -11 -9 -5 -8 -11 -11 -10 -9 -8 -9
-10 -5 -7 -8 -13 -10 -8 -2 -2 -6 -6 -9 -8 -8 -6 -8 -5 -3 -5 -3 -6 -4 -5 -5 -4 -6 -8 -10 -10 -10 -11 -11 -9 -7 -7 -6 -6 -7 -10 -10 -9 -8 -8 -8
-7 -12 -8 -9 -11 -9 -4 -4 -6 -8 -8 -9 -7 -6 -5 -2 -4 -3 -3 -4 -4 -4 -7 -3 -5 -6 -8 -7 -8 -9 -9 -9 -8 -6 -6 -6 -8 -7 -7 -7 -7 -7 -7 -8
-8 -7 -7 -10 -9 -7 -8 -4 -6 -4 -5 -4 -3 -2 -3 -2 -3 -4 -3 -3 -3 -7 -3 -5 -5 -8 -8 -6 -6 -7 -8 -8 -8 -7 -6 -6 -6 -7 -6 -7 -6 -5 -5 -7
-7 -5 -6 -5 -5 -10 -10 -10 -4 -4 -6 -6 -4 -3 -2 -4 -2 -4 -3 -5 -6 -4 -3 -4 -6 -8 -7 -7 -7 -7 -7 -7 -6 -6 -6 -6 -5 -5 -6 -7 -10 -9 -8 -9
-6 -8 -5 -6 -7 -4 -5 -5 -6 -7 -6 -5 -3 -4 -5 -3 -3 -5 -5 -3 -3 -6 -5 -3 -6 -8 -7 -7 -7 -7 -6 -6 -4 -5 -6 -6 -6 -5 -6 -6 -7 -8 -8 -8
-6 -7 -6 -7 -4 -2 -3 -5 -5 -8 -8 -8 -7 -4 -3 -3 -4 -3 -4 -5 -5 -4 -4 -5 -5 -6 -6 -5 -6 -6 -5 -4 -5 -6 -7 -7 -7 -6 -6 -5 -5 -5 -5 -6
-7 -4 -7 -7 -6 -4 -4 -5 -6 -7 -8 -5 -8 -4 -7 -7 -6 -6 -7 -5 -5 -4 -5 -5 -6 -6 -5 -5 -4 -5 -8 -8 -8 -8 -7 -6 -4 -4 -4 -4 -5 -5 -5 -5

GFSNW_850_dewp_222.txt.gz
Dewpoint
2 2 2 1 1 -2 -1 2 5 6 6 5 4 5 4 2 1 1 4 4 5 4 4 4 3 4 2 2 2 5 4 2 5 2 0 -0 -0 2 3 8 9 8 8 4
2 2 2 1 1 -2 1 2 3 5 6 4 3 3 3 2 3 4 4 5 4 4 4 6 3 3 -1 -1 1 4 3 4 7 4 1 -0 1 0 2 4 9 8 10 5
-1 1 2 1 1 -1 1 1 2 4 6 3 3 4 4 5 3 4 5 4 5 6 7 7 6 2 -1 -1 0 -1 1 3 5 7 3 1 3 1 0 3 7 6 5 2
-2 1 2 1 2 -1 1 1 1 3 5 4 4 3 4 5 6 4 5 5 6 7 8 8 8 5 1 -0 0 1 4 6 4 3 1 2 3 1 1 1 3 6 4 2
-1 2 2 2 2 -0 1 0 0 2 4 3 4 4 5 5 5 5 5 5 5 6 8 7 8 5 2 2 0 2 4 8 6 7 3 3 6 -0 -1 0 -0 0 1 2
0 3 2 2 2 0 2 2 1 3 4 4 5 5 4 5 3 3 2 4 6 7 6 5 5 6 5 3 3 5 6 6 7 9 5 5 4 0 -2 -2 -0 -0 2 -0
3 2 2 2 2 0 -0 1 1 4 5 4 4 4 4 4 4 5 3 3 6 4 4 3 3 2 3 4 4 4 5 5 6 8 6 7 0 -6 -3 -2 -4 -4 -4 -4
2 2 2 2 1 1 0 1 1 4 4 4 4 3 4 3 3 4 4 4 4 3 2 2 3 3 4 3 4 5 4 5 7 6 5 2 -2 -8 -6 -4 -2 -3 -3 -5
3 2 2 2 1 1 1 2 3 3 5 4 3 4 4 5 4 1 1 3 3 3 1 3 5 4 4 4 5 4 5 4 4 6 6 5 -2 -7 -10 -11 -4 -9 -9 -12
2 2 2 2 1 2 1 1 3 3 2 2 3 4 5 2 2 2 0 2 1 1 3 5 5 5 2 4 3 5 5 5 5 5 5 2 -7 -13 -15 -7 -6 -12 -14 -14
2 2 2 2 1 1 2 1 1 3 1 0 3 4 2 2 1 2 -0 0 0 1 4 5 4 4 3 1 -1 2 4 5 5 5 5 4 -13 -13 -9 -6 -10 -11 -11 -11
2 1 0 -1 -0 0 1 2 1 2 1 -1 0 2 2 2 2 1 0 1 1 1 3 3 2 3 2 1 2 -3 2 2 2 1 -0 -7 -12 -11 -10 -9 -9 -11 -12 -12
-3 -3 -2 -1 1 2 2 2 2 2 -1 -2 -0 -0 1 2 2 2 0 -0 0 1 2 2 2 2 -2 2 1 -1 -3 -3 1 -2 -6 -7 -10 -11 -10 -12 -12 -12 -10 -8
-1 -1 0 0 1 2 2 2 2 1 -1 -0 -1 -1 -0 0 1 1 0 -0 1 1 1 2 2 1 -2 -0 -3 -3 -4 -5 -5 -5 -9 -10 -11 -11 -11 -13 -12 -9 -7 -8
-1 -0 1 1 2 2 2 2 1 1 -1 -0 -0 -1 -0 -0 0 0 0 0 1 1 1 2 1 -4 -4 -4 -6 -5 -8 -6 -4 -3 -8 -8 -10 -11 -12 -13 -9 -7 -9 -11
1 2 2 2 2 1 1 0 -0 -0 -3 -2 -0 -1 -0 -0 0 -0 0 0 1 0 0 -0 -4 -5 -2 -1 -6 -10 -10 -10 -10 -9 -12 -12 -13 -13 -11 -10 -8 -8 -10 -11
-1 -1 -1 -1 -0 0 -0 -1 -1 -1 -4 -3 -1 -1 -1 -0 0 0 0 -0 -1 -2 -3 -1 -7 -7 -3 -6 -9 -16 -17 -14 -13 -14 -14 -12 -11 -11 -9 -8 -7 -10 -11 -11
-3 -3 -2 -2 -1 -2 -1 -1 -1 -2 -3 -3 -1 -1 -1 -1 -2 -2 -4 -4 -4 -5 -6 -9 -6 -7 -9 -7 -13 -16 -17 -16 -15 -15 -14 -12 -13 -11 -9 -8 -9 -11 -11 -10
-5 -4 -4 -4 -4 -3 -3 -4 -5 -5 -3 -1 -3 -2 -1 -3 -4 -5 -5 -6 -2 -7 -3 -7 -7 -6 -5 -9 -12 -15 -16 -15 -14 -15 -14 -12 -11 -11 -9 -7 -10 -11 -10 -10
-6 -4 -9 -9 -11 -6 -5 -4 -2 -4 -5 -5 -3 -7 -3 -4 -5 -3 -4 -6 -3 -3 -6 -11 -6 -7 -10 -11 -13 -14 -16 -16 -15 -15 -14 -13 -11 -9 -8 -8 -11 -10 -9 -9
-5 -8 -10 -9 -10 -8 -6 -0 0 -5 -5 -6 -7 -6 -4 -7 -2 -2 -6 -1 -6 -4 -7 -5 -5 -6 -6 -11 -11 -12 -13 -15 -15 -13 -13 -12 -10 -7 -7 -9 -11 -10 -8 -7
-8 -12 -9 -9 -10 -7 -3 -3 -5 -8 -8 -7 -4 -3 -2 -2 -3 -2 -3 -4 -4 -4 -6 -3 -5 -3 -9 -10 -10 -10 -11 -12 -12 -11 -9 -10 -6 -5 -7 -9 -9 -9 -8 -7
-9 -7 -9 -9 -5 -6 -6 -4 -6 -5 -4 -4 -2 -0 -2 -2 -3 -1 -2 -3 -3 -6 -3 -5 -1 -7 -9 -9 -9 -10 -10 -10 -9 -7 -6 -6 -6 -7 -7 -7 -8 -8 -8 -8
-7 -4 -6 -4 -5 -7 -5 -9 -3 -5 -4 -4 -3 -2 -1 -3 -1 -4 -3 -5 -6 -4 -4 -5 -4 -8 -9 -8 -8 -8 -9 -8 -8 -7 -6 -6 -6 -5 -6 -7 -8 -8 -8 -7
-7 -6 -5 -5 -4 -5 -5 -6 -6 -5 -4 -4 -3 -4 -4 -3 -2 -5 -4 -3 -4 -6 -6 -3 -5 -7 -7 -7 -7 -7 -7 -7 -7 -6 -6 -6 -6 -5 -5 -5 -5 -5 -5 -6
-6 -7 -5 -5 -4 -1 -3 -4 -4 -6 -6 -6 -6 -4 -3 -3 -4 -3 -4 -6 -6 -4 -2 -3 -6 -6 -7 -7 -7 -6 -5 -5 -5 -5 -5 -6 -7 -8 -8 -7 -6 -5 -5 -4
-8 -4 -6 -7 -4 -2 -3 -5 -6 -8 -6 -3 -7 -5 -6 -6 -5 -6 -7 -6 -4 -3 -3 -4 -6 -5 -5 -4 -5 -4 -5 -5 -5 -7 -8 -8 -8 -8 -6 -4 -5 -5 -5 -6

GFSNW_850_dewp_228.txt.gz
Dewpoint
1 1 2 3 1 2 -0 1 2 2 2 4 5 4 3 2 1 1 3 4 6 5 3 4 4 3 3 1 -3 5 4 6 8 6 2 2 3 4 5 9 7 6 5 5
3 3 2 2 2 1 1 0 1 1 2 3 3 3 3 2 2 2 5 5 4 4 6 6 4 5 3 1 0 5 5 8 9 8 5 3 5 4 4 5 5 7 9 6
3 3 3 2 2 1 1 0 1 2 3 3 2 4 4 4 3 3 6 5 5 4 5 7 8 7 4 2 2 2 4 7 8 8 6 5 5 5 4 5 7 6 6 5
2 2 2 2 2 1 0 1 1 2 3 3 2 3 3 4 7 5 5 6 6 6 7 8 8 4 2 1 1 4 5 7 7 5 4 4 6 5 4 5 6 6 5 5
2 2 2 2 2 2 0 0 0 1 2 2 2 4 3 4 6 6 7 6 6 6 6 7 8 6 2 2 2 5 5 7 6 7 5 7 7 5 4 4 3 3 3 3
1 2 2 2 2 2 1 0 1 1 2 3 3 3 4 4 4 5 5 5 6 6 6 6 5 4 4 4 4 6 5 6 6 8 7 7 8 6 7 6 4 2 3 2
3 2 2 2 2 1 1 -1 0 2 3 3 3 3 3 4 3 3 4 5 6 5 5 5 4 4 4 5 5 4 5 5 6 7 7 9 6 3 4 5 4 3 -0 -0
2 2 2 2 1 2 1 -1 -1 2 3 3 3 3 3 3 3 4 5 6 5 5 4 4 6 4 5 4 4 5 4 5 6 7 8 6 4 -5 5 6 5 3 -1 -0
2 2 2 3 2 2 1 -1 -2 -1 2 3 2 3 3 4 4 3 2 5 5 4 3 4 5 6 6 5 5 4 5 5 7 6 7 8 0 -5 -5 -3 4 -4 -5 2
2 3 2 3 2 2 1 -1 -2 -0 -1 2 3 3 3 2 4 4 2 2 3 3 3 5 6 5 4 5 5 5 5 4 6 6 6 4 0 -7 -6 1 0 -7 -8 -5
1 1 2 3 2 2 1 0 -1 -1 -0 0 0 2 3 3 3 3 1 3 2 2 5 5 4 5 4 4 4 5 5 5 5 5 5 6 -1 -8 -3 -4 -8 -9 -10 -10
1 1 1 1 3 1 2 0 -0 -1 0 0 1 1 1 3 3 2 2 2 1 3 3 3 3 4 3 3 5 3 5 3 4 3 3 -2 -9 -9 -9 -10 -9 -8 -8 -7
-1 -1 -1 0 2 2 2 1 1 1 1 1 1 1 2 2 3 2 2 1 2 3 1 2 2 4 2 3 3 3 3 2 3 3 1 -7 -7 -9 -10 -11 -11 -9 -9 -7
1 1 1 1 1 2 2 2 1 1 1 -1 -0 0 1 3 4 3 2 2 2 2 1 1 2 3 1 2 1 2 1 1 1 1 -2 -6 -6 -10 -11 -10 -11 -9 -9 -9
2 2 2 2 2 3 2 2 1 0 0 -1 -1 -0 0 2 2 3 2 2 2 1 0 1 2 1 1 -1 -2 -1 -1 1 2 2 -3 -3 -7 -10 -11 -10 -8 -8 -8 -9
2 2 2 2 2 2 2 0 1 1 1 -0 -0 -1 -0 0 1 2 2 2 2 1 -0 0 -0 -0 -0 2 2 -4 -5 -2 -1 -3 -4 -6 -8 -10 -10 -9 -8 -8 -8 -9
1 1 1 2 2 2 0 0 -0 0 0 -1 -1 -1 -0 0 1 1 0 0 -0 -0 -0 -0 -2 -4 -0 -0 -1 -7 -5 -5 -3 -5 -7 -6 -10 -9 -10 -10 -8 -8 -9 -11
-0 0 1 1 1 1 0 -0 0 0 1 -1 -1 -1 -0 -0 -0 -0 -0 -1 -1 -1 -1 -2 -2 -3 -3 -2 -7 -10 -6 -7 -7 -7 -8 -8 -10 -12 -9 -8 -8 -10 -11 -12
0 1 1 1 0 -1 -1 -1 -1 -0 -1 -1 -1 -1 -0 -1 -1 -1 -1 -2 -1 -4 -2 -4 -3 -3 -4 -7 -8 -13 -8 -8 -11 -12 -11 -9 -9 -9 -8 -8 -8 -9 -11 -11
-2 -1 -1 -2 -2 -1 -1 -2 -1 -1 -1 -1 -1 -1 -0 -1 -1 -1 -1 -3 -2 -2 -5 -6 -2 -5 -7 -8 -9 -14 -13 -11 -13 -8 -7 -7 -7 -8 -8 -8 -8 -9 -9 -11
-5 -5 -2 -2 -2 -3 -1 -1 -1 -1 -1 -1 -1 -2 -1 -2 -1 -1 -3 -2 -2 -2 -4 -4 -2 -3 -4 -10 -12 -16 -15 -14 -14 -14 -11 -11 -9 -8 -8 -8 -8 -9 -10 -11
-7 -6 -3 -2 -4 -2 -3 -2 -1 -1 -0 -1 -1 -1 -1 -1 -3 -2 -2 -2 -3 -2 -4 -3 -2 -4 -8 -10 -13 -16 -15 -15 -15 -14 -12 -11 -11 -10 -9 -8 -8 -8 -9 -11
-8 -10 -6 -6 -5 -6 -5 -4 -2 -1 -1 -1 -1 -1 -1 -3 -3 -2 -3 -3 -3 -4 -4 -3 -3 -5 -8 -10 -14 -16 -16 -15 -15 -13 -12 -12 -12 -11 -9 -8 -8 -9 -10 -10
-9 -7 -7 -5 -3 -1 -1 -2 -2 -2 -1 -1 -2 -3 -3 -2 -3 -3 -4 -3 -4 -5 -5 -5 -4 -6 -8 -10 -13 -14 -15 -15 -13 -13 -12 -11 -10 -7 -7 -8 -8 -8 -8 -9
-6 -6 -5 -4 -3 -3 -3 -2 -2 -1 -2 -3 -3 -3 -3 -3 -3 -2 -4 -5 -4 -4 -5 -4 -4 -8 -9 -9 -11 -13 -14 -13 -12 -10 -9 -6 -6 -6 -6 -7 -8 -10 -10 -9
-5 -5 -5 -4 -3 -4 -4 -3 -3 -3 -5 -6 -6 -3 -4 -4 -4 -5 -5 -3 -5 -5 -4 -4 -6 -8 -8 -9 -10 -12 -11 -9 -7 -6 -6 -6 -6 -6 -6 -6 -5 -5 -6 -7
-5 -5 -3 -2 -3 -5 -3 -5 -6 -7 -8 -4 -4 -5 -4 -4 -3 -4 -4 -5 -4 -4 -4 -5 -7 -7 -7 -8 -9 -8 -7 -6 -5 -5 -5 -5 -6 -6 -7 -8 -9 -9 -9 -8

GFSNW_850_dewp_234.txt.gz
Dewpoint
-3 -3 -3 -2 -1 -0 0 2 2 1 2 2 1 1 2 1 1 2 3 3 0 2 -0 -1 -2 -3 -6 -7 -4 3 1 6 7 5 4 2 3 4 5 8 8 7 8 6
0 0 -1 -2 -2 -2 1 2 1 2 2 2 1 -0 1 2 1 1 4 5 3 -1 2 1 -1 -2 -4 -3 -3 3 2 6 7 7 5 4 5 4 4 5 5 7 9 7
1 1 1 1 -0 -2 0 1 1 -0 2 1 0 -0 1 2 1 2 3 5 5 4 4 2 1 0 2 1 -3 2 2 5 2 2 1 5 7 5 4 6 8 7 7 6
2 2 2 2 2 0 1 1 0 -0 1 1 -0 -1 -0 2 1 1 3 4 6 5 4 5 6 1 3 2 1 4 4 5 5 3 3 3 5 6 5 6 6 7 6 6
3 2 1 3 2 1 1 1 -0 0 1 -0 -0 -0 1 0 2 1 3 5 4 5 6 5 6 4 3 4 3 2 5 6 5 6 4 4 5 4 4 5 5 5 5 5
2 0 1 1 2 1 1 1 0 -2 0 1 -1 -1 -1 1 1 1 2 3 4 5 5 5 5 5 4 3 5 5 6 6 7 7 7 7 9 6 4 4 3 5 7 5
2 0 1 1 2 1 1 0 -0 -1 1 1 0 -2 -1 -0 0 2 1 3 4 3 3 5 5 5 5 5 5 5 6 6 7 9 8 10 7 4 4 4 3 3 3 3
1 1 2 1 1 1 1 0 -1 -3 0 -0 -1 -2 -1 0 -1 3 3 3 4 3 5 5 7 6 6 5 6 6 6 7 8 9 9 8 7 4 4 6 6 3 4 2
1 1 2 2 1 1 0 1 -2 -5 -1 -1 -2 -0 -1 0 1 1 3 3 5 4 4 5 7 7 7 6 6 6 6 7 8 6 10 10 5 1 2 3 7 3 2 1
1 1 2 3 1 2 0 -1 -4 -6 -1 1 -2 -1 -0 -1 -0 2 2 4 4 4 5 5 6 7 5 6 7 6 6 6 8 7 8 6 3 -5 2 7 5 2 1 0
2 2 2 3 2 1 1 -2 -2 -4 0 1 1 0 1 -1 -0 1 2 4 3 3 5 6 5 6 5 5 5 6 6 6 7 6 7 9 1 -4 3 2 -6 -4 3 0
2 2 2 1 0 1 -0 -1 -2 -2 -3 0 1 2 2 2 2 1 2 4 2 3 4 4 4 4 4 5 6 4 6 4 5 5 6 1 -2 -6 -6 -6 -6 -6 -1 2
2 2 2 1 1 1 0 -0 -1 -2 -0 1 1 0 -1 0 1 1 2 2 3 4 3 3 3 4 3 4 4 4 3 2 4 4 4 1 -6 -5 -8 -7 -7 -7 -5 -2
2 2 2 1 1 1 -1 -1 -2 -2 -1 -1 -0 0 1 -0 -1 0 1 3 3 3 2 2 3 4 2 3 2 4 3 3 3 3 0 -4 -4 -7 -5 -8 -8 -7 -5 -3
2 2 2 2 1 0 -0 -1 -1 -1 -2 -3 -0 -0 0 0 1 1 1 1 2 2 2 2 3 2 2 1 2 3 2 2 4 4 1 2 0 -1 -7 -7 -8 -7 -6 -6
1 1 2 2 2 1 1 1 1 -0 -0 -0 -3 -1 -1 0 1 1 1 1 2 2 1 1 1 1 1 3 3 0 1 1 1 1 0 -2 -3 -4 -8 -8 -7 -7 -7 -6
1 1 0 1 1 1 1 1 1 1 1 -0 -1 -2 -1 -0 0 -0 -0 0 -0 0 -0 0 0 0 1 2 3 -0 -1 0 1 -0 -2 -5 -6 -7 -8 -7 -7 -8 -8 -8
1 1 1 0 -0 -0 -0 -0 1 1 0 0 -1 -3 -1 -0 -1 -1 -1 -1 -1 -1 -1 -1 0 0 1 2 0 -4 -5 -2 -1 -1 -1 -2 -6 -7 -7 -7 -8 -8 -9 -9
1 1 1 0 -0 -1 -1 -0 0 1 0 -2 -3 -1 0 -1 -2 -1 -1 -1 -1 -1 -1 -0 0 -0 2 1 -1 -2 -7 -3 -2 -3 -4 -5 -7 -7 -7 -8 -9 -10 -10 -10
-0 -0 -1 -2 -1 -1 -1 -0 -0 -0 -1 -1 -3 -2 0 -1 -2 -1 -1 -2 -1 -0 -1 -1 -0 -0 -3 -5 -5 -8 -6 -5 -3 -6 -5 -5 -6 -7 -8 -9 -6 -7 -10 -10
-1 -2 -2 -2 -1 -2 -2 -2 -4 -2 -3 -2 -2 -2 -1 -1 -1 -1 -3 -2 -2 -1 -2 -1 -1 -1 -4 -6 -10 -11 -12 -7 -4 -4 -5 -7 -7 -8 -8 -8 -9 -10 -11 -13
-3 -3 -2 -3 -3 -2 -4 -5 -2 -2 -2 -1 -1 -1 -2 -2 -2 -2 -2 -1 -2 -1 -4 -5 -4 -5 -7 -8 -11 -10 -7 -6 -5 -5 -7 -7 -8 -8 -9 -9 -9 -11 -12 -11
-5 -5 -5 -4 -4 -4 -5 -5 -1 -3 -3 -1 -1 -2 -1 -1 -1 -2 -2 -2 -1 -4 -3 -2 -4 -5 -6 -10 -10 -8 -7 -7 -7 -7 -8 -8 -7 -8 -9 -9 -10 -11 -10 -10
-8 -6 -4 -4 -5 -4 -4 -4 -4 -3 -2 -1 -2 -4 -3 -2 -2 -2 -1 -1 -3 -3 -5 -6 -4 -6 -6 -11 -10 -9 -9 -9 -9 -9 -9 -8 -8 -8 -9 -9 -9 -9 -9 -11
-8 -6 -5 -4 -3 -3 -2 -2 -2 -2 -2 -2 -2 -2 -2 -2 -2 -1 -3 -4 -3 -4 -6 -6 -5 -5 -9 -11 -12 -12 -11 -10 -10 -9 -8 -8 -8 -8 -9 -8 -9 -9 -10 -11
-5 -5 -4 -2 -3 -2 -1 -2 -2 -2 -2 -3 -3 -2 -2 -2 -1 -4 -4 -3 -5 -5 -5 -5 -5 -8 -11 -12 -14 -14 -14 -13 -10 -8 -8 -8 -8 -8 -8 -9 -9 -9 -9 -10
-4 -3 -3 -4 -3 -3 -2 -2 -2 -2 -3 -2 -3 -5 -4 -3 -4 -4 -4 -5 -5 -4 -4 -5 -7 -11 -12 -13 -13 -13 -12 -10 -10 -10 -9 -9 -8 -8 -8 -8 -8 -8 -8 -8